Weather History for KTTF - December, 2011

Change the Weather History Date:

Friday, December 2, 2011

  Actual Average Record
Temperature  
Mean Temperature 36 °F -  
Max Temperature 41 °F 40 °F 62 °F (1982)
Min Temperature 32 °F 26 °F 7 °F (1966)
Degree Days  
Heating Degree Days 28    
Moisture  
Dew Point 32 °F    
Average Humidity 87    
Maximum Humidity 100    
Minimum Humidity 61    
Precipitation  
Precipitation 0.00 in - - ()
Sea Level Pressure  
Sea Level Pressure 30.37 in    
Wind  
Wind Speed 5 mph (West)    
Max Wind Speed 12 mph    
Max Gust Speed 18 mph    
Visibility 9 miles    
Events Snow    
Averages and records for this station are not official NWS values.
T = Trace of Precipitation, MM = Missing Value Source: NWS Daily Summary

Daily Weather History Graph

Daily Weather History Graph

Search for Another Location

Airport or City:

Trip Planner

Search our weather history database for the weather conditions in past years. The results will help you decide how hot, cold, wet, or windy it might be!

Date:

Astronomy

Dec. 02, 2011 Rise Set
Actual Time 7:42 AM EST 5:03 PM EST
Civil Twilight 7:11 AM EST 5:34 PM EST
Nautical Twilight 6:36 AM EST 6:09 PM EST
Astronomical Twilight 6:03 AM EST 6:42 PM EST
Moon 12:47 PM EST (12/2) 12:05 AM EST (12/2)
Length of Visible Light 10h 22m
Length of Day
9h 20m
First Quarter, 53% of the Moon is Illuminated
Dec 2
First Quarter
Dec 10
Full
Dec 17
Last Quarter
Dec 24
New
Jan 1
First Quarter

Hourly Weather History & Observations

Time (EST) Temp. Windchill Dew Point Humidity Pressure Visibility Wind Dir Wind Speed Gust Speed Precip Events Conditions
12:13 AM 35.6 °F 31.7 °F 32.0 °F 87% 30.23 in 10.0 mi WSW 4.6 mph - N/A   Overcast
12:33 AM 35.6 °F 30.7 °F 32.0 °F 87% 30.23 in 10.0 mi WSW 5.8 mph - N/A   Overcast
12:53 AM 35.6 °F 30.7 °F 32.0 °F 87% 30.23 in 10.0 mi WSW 5.8 mph - N/A   Overcast
1:13 AM 35.6 °F 31.7 °F 32.0 °F 87% 30.22 in 10.0 mi WSW 4.6 mph - N/A   Overcast
1:33 AM 35.6 °F 30.7 °F 33.8 °F 93% 30.23 in 10.0 mi WSW 5.8 mph - N/A   Overcast
1:53 AM 35.6 °F 32.8 °F 33.8 °F 93% 30.22 in 10.0 mi WSW 3.5 mph - N/A   Overcast
2:14 AM 35.6 °F 32.8 °F 33.8 °F 93% 30.22 in 10.0 mi WSW 3.5 mph - N/A   Overcast
2:34 AM 35.6 °F 32.8 °F 33.8 °F 93% 30.23 in 10.0 mi WSW 3.5 mph - N/A   Overcast
2:54 AM 35.6 °F 31.7 °F 33.8 °F 93% 30.23 in 10.0 mi WSW 4.6 mph - N/A   Overcast
3:14 AM 35.6 °F 31.7 °F 33.8 °F 93% 30.23 in 10.0 mi SW 4.6 mph - N/A   Overcast
3:35 AM 35.6 °F 31.7 °F 33.8 °F 93% 30.23 in 10.0 mi West 4.6 mph - N/A   Overcast
4:15 AM 35.6 °F 31.7 °F 33.8 °F 93% 30.23 in 10.0 mi WSW 4.6 mph - N/A   Overcast
4:35 AM 35.6 °F 31.7 °F 33.8 °F 93% 30.23 in 10.0 mi West 4.6 mph - N/A   Overcast
4:50 AM 35.6 °F 31.7 °F 33.8 °F 93% 30.24 in 10.0 mi West 4.6 mph - N/A   Overcast
5:10 AM 35.6 °F 32.8 °F 33.8 °F 93% 30.24 in 10.0 mi WSW 3.5 mph - N/A   Overcast
5:30 AM 35.6 °F 32.8 °F 35.6 °F 100% 30.25 in 10.0 mi West 3.5 mph - N/A   Overcast
6:11 AM 35.6 °F 32.8 °F 35.6 °F 100% 30.26 in 4.0 mi West 3.5 mph - N/A Snow Light Snow
6:31 AM 33.8 °F 30.8 °F 33.8 °F 100% 30.27 in 2.0 mi West 3.5 mph - N/A Snow Light Snow
6:51 AM 33.8 °F 29.6 °F 33.8 °F 100% 30.29 in 1.8 mi West 4.6 mph - N/A Snow Light Snow
7:11 AM 33.8 °F 29.6 °F 33.8 °F 100% 30.30 in 1.5 mi West 4.6 mph - N/A Snow Light Snow
7:31 AM 33.8 °F 27.7 °F 33.8 °F 100% 30.31 in 2.0 mi West 6.9 mph - N/A Snow Light Snow
7:51 AM 33.8 °F 28.6 °F 33.8 °F 100% 30.31 in 2.5 mi WNW 5.8 mph - N/A Snow Light Snow
8:12 AM 33.8 °F 27.7 °F 33.8 °F 100% 30.32 in 2.0 mi WNW 6.9 mph - N/A   Overcast
8:32 AM 33.8 °F 27.0 °F 33.8 °F 100% 30.33 in 3.0 mi NW 8.1 mph - N/A   Overcast
8:52 AM 35.6 °F 27.5 °F 35.6 °F 100% 30.34 in 7.0 mi NNW 11.5 mph 16.1 mph N/A   Overcast
9:12 AM 35.6 °F 29.9 °F 35.6 °F 100% 30.36 in 7.0 mi NNW 6.9 mph - N/A   Overcast
9:32 AM 35.6 °F 27.5 °F 35.6 °F 100% 30.37 in 10.0 mi North 11.5 mph 18.4 mph N/A   Overcast
9:52 AM 35.6 °F 27.5 °F 35.6 °F 100% 30.38 in 10.0 mi NNW 11.5 mph 17.3 mph N/A   Overcast
10:13 AM 35.6 °F 27.5 °F 33.8 °F 93% 30.40 in 10.0 mi North 11.5 mph - N/A   Overcast
10:53 AM 35.6 °F 28.6 °F 33.8 °F 93% 30.41 in 10.0 mi North 9.2 mph - N/A   Overcast
11:13 AM 35.6 °F 29.2 °F 35.6 °F 100% 30.41 in 10.0 mi North 8.1 mph - N/A   Overcast
11:33 AM 37.4 °F 32.1 °F 33.8 °F 87% 30.42 in 10.0 mi North 6.9 mph - N/A   Mostly Cloudy
11:53 AM 37.4 °F 32.1 °F 32.0 °F 81% 30.42 in 10.0 mi North 6.9 mph - N/A   Mostly Cloudy
12:14 PM 37.4 °F 32.8 °F 33.8 °F 87% 30.42 in 10.0 mi North 5.8 mph - N/A   Scattered Clouds
12:34 PM 37.4 °F 32.1 °F 32.0 °F 81% 30.42 in 10.0 mi North 6.9 mph - N/A   Mostly Cloudy
12:54 PM 39.2 °F 37.0 °F 30.2 °F 70% 30.43 in 10.0 mi North 3.5 mph - N/A   Overcast
1:14 PM 39.2 °F 34.2 °F 30.2 °F 70% 30.43 in 10.0 mi North 6.9 mph - N/A   Overcast
1:34 PM 39.2 °F 33.6 °F 30.2 °F 70% 30.43 in 10.0 mi NNW 8.1 mph - N/A   Mostly Cloudy
1:54 PM 39.2 °F - 28.4 °F 65% 30.44 in 10.0 mi Calm Calm - N/A   Mostly Cloudy
2:14 PM 39.2 °F 34.2 °F 28.4 °F 65% 30.43 in 10.0 mi West 6.9 mph - N/A   Scattered Clouds
2:34 PM 41.0 °F 36.4 °F 28.4 °F 61% 30.44 in 10.0 mi West 6.9 mph - N/A   Mostly Cloudy
2:55 PM 39.2 °F 37.0 °F 28.4 °F 65% 30.44 in 10.0 mi WNW 3.5 mph - N/A   Mostly Cloudy
3:15 PM 41.0 °F 38.0 °F 30.2 °F 65% 30.44 in 10.0 mi West 4.6 mph - N/A   Scattered Clouds
3:35 PM 37.4 °F 34.9 °F 30.2 °F 75% 30.45 in 10.0 mi West 3.5 mph - N/A   Clear
4:10 PM 39.2 °F - 30.2 °F 70% 30.45 in 10.0 mi Calm Calm - N/A   Clear
4:30 PM 37.4 °F - 30.2 °F 75% 30.46 in 10.0 mi Calm Calm - N/A   Clear
4:50 PM 37.4 °F - 30.2 °F 75% 30.47 in 10.0 mi Calm Calm - N/A   Scattered Clouds
5:11 PM 35.6 °F - 30.2 °F 81% 30.47 in 10.0 mi Calm Calm - N/A   Mostly Cloudy
5:31 PM 37.4 °F - 30.2 °F 75% 30.47 in 10.0 mi Calm Calm - N/A   Overcast
5:51 PM 37.4 °F - 30.2 °F 75% 30.48 in 10.0 mi Calm Calm - N/A   Overcast
6:11 PM 37.4 °F - 30.2 °F 75% 30.48 in 10.0 mi Calm Calm - N/A   Overcast
6:31 PM 35.6 °F 32.8 °F 32.0 °F 87% 30.49 in 10.0 mi SSE 3.5 mph - N/A   Overcast
6:51 PM 37.4 °F 32.1 °F 32.0 °F 81% 30.49 in 10.0 mi SSE 6.9 mph - N/A   Mostly Cloudy
7:12 PM 37.4 °F 32.1 °F 33.8 °F 87% 30.50 in 10.0 mi South 6.9 mph - N/A   Overcast
7:32 PM 35.6 °F 29.2 °F 32.0 °F 87% 30.49 in 10.0 mi SSE 8.1 mph - N/A   Mostly Cloudy
7:52 PM 35.6 °F 30.7 °F 32.0 °F 87% 30.50 in 10.0 mi South 5.8 mph - N/A   Scattered Clouds
8:12 PM 35.6 °F 31.7 °F 32.0 °F 87% 30.50 in 10.0 mi South 4.6 mph - N/A   Clear
8:32 PM 33.8 °F 29.6 °F 30.2 °F 87% 30.50 in 10.0 mi South 4.6 mph - N/A   Scattered Clouds
8:52 PM 33.8 °F 29.6 °F 32.0 °F 93% 30.50 in 10.0 mi South 4.6 mph - N/A   Scattered Clouds
9:13 PM 32.0 °F 28.7 °F 30.2 °F 93% 30.50 in 10.0 mi South 3.5 mph - N/A   Clear
9:33 PM 32.0 °F 27.5 °F 30.2 °F 93% 30.50 in 10.0 mi South 4.6 mph - N/A   Clear
9:53 PM 32.0 °F 28.7 °F 32.0 °F 100% 30.50 in 10.0 mi South 3.5 mph - N/A   Scattered Clouds
10:13 PM 33.8 °F 29.6 °F 32.0 °F 93% 30.51 in 10.0 mi South 4.6 mph - N/A   Mostly Cloudy
10:33 PM 33.8 °F 28.6 °F 32.0 °F 93% 30.49 in 10.0 mi SSE 5.8 mph - N/A   Mostly Cloudy
10:54 PM 33.8 °F 28.6 °F 30.2 °F 87% 30.50 in 10.0 mi South 5.8 mph - N/A   Clear
11:14 PM 33.8 °F 30.8 °F 30.2 °F 87% 30.50 in 10.0 mi SSW 3.5 mph - N/A   Clear
11:34 PM 32.0 °F 28.7 °F 30.2 °F 93% 30.49 in 10.0 mi SSW 3.5 mph - N/A   Clear
11:54 PM 32.0 °F - 30.2 °F 93% 30.49 in 10.0 mi Calm Calm - N/A   Clear